{"data":{"norad_id":48432,"intl_designator":"2021-040E","name":"STARLINK-2680","alt_names":[],"object_type":"PAYLOAD","status":"ACTIVE","operator":null,"country":"US","launch_date":"2021-05-09","launch_site_code":"AFETR","launch_vehicle":null,"mission":null,"orbit_class":"UNKNOWN","rcs_meters":null,"size_class":null,"mass_kg":null,"dimensions":null,"purposes":["comms"],"wikipedia_slug":null,"has_3d_model":false,"image_url":null,"decayed_at":null,"tle_current":{"epoch":"2026-05-25T00:39:20.769408Z","epoch_age_seconds":65849,"freshness":"FRESH","line1":"1 48432U 21040E   26145.02732372 -.00000539  00000+0 -56114-5 0  9992","line2":"2 48432  53.1594 157.8589 0001060  66.3692 293.7421 15.31702486278712","mean_motion":15.31702486,"eccentricity":0.000106,"inclination_deg":53.1594,"raan_deg":157.8589,"arg_perigee_deg":66.3692,"mean_anomaly_deg":293.7421,"bstar":-5.6114e-6,"rev_number":27871,"period_min":94.013035374808,"perigee_km":470.00660442306,"apogee_km":471.458564775,"semimajor_km":6848.869584599,"source":"CELESTRAK","updated_at":"2026-05-25T13:38:16.714236Z"}}}